User: anonymous   Login
Location: Cuzcurrita-R�o Tir�n
(42.5415°N, 2.9642°W)
Time: 07:31:59
(UTC+00:00)
Language:

Cosmos 1862 Rocket - Orbit

View from above orbital plane
View from above orbital plane
View from above satellite
View from above satellite

Ground track
Ground track

The orbit data is extracted from the following two-line orbital elements,

1 18153U 87055B   20156.43958930 +.00000082 +00000-0 +70576-5 0  9998
2 18153 082.4991 167.4010 0023041 113.2620 247.1024 14.83287799757857
Epoch (UTC): 04 June 2020 10:33:00
Eccentricity: 0.0023041
inclination: 82.4991°
perigee height: 603 km
apogee height: 635 km
right ascension of ascending node: 167.4010°
argument of perigee: 113.2620°
revolutions per day: 14.83287799
mean anomaly at epoch: 247.1024°
orbit number at epoch: 75785

The dashed part of the orbit path shows where the satellite is in the earth's shadow,  

DLR